User: anonymous   Login
Location: Livonia
(42.3680°N, 83.3530°W)
Time: 03:00:53
(UTC-04:00)
Language:

MOZ.5/SAFIR/RUBIN 5/SL-8 - Orbit

View from above orbital plane
View from above orbital plane
View from above satellite
View from above satellite

Ground track
Ground track

The orbit data is extracted from the following two-line orbital elements,

1 28898U 05043G   17174.90352675 -.00000021 +00000-0 +49095-5 0  9990
2 28898 097.9273 324.3538 0020245 163.1477 197.0401 14.60183948244189
Epoch (UTC): 23 June 2017 21:41:04
Eccentricity: 0.0020245
inclination: 97.9273°
perigee height: 678 km
apogee height: 707 km
right ascension of ascending node: 324.3538°
argument of perigee: 163.1477°
revolutions per day: 14.60183948
mean anomaly at epoch: 197.0401°
orbit number at epoch: 24418

The dashed part of the orbit path shows where the satellite is in the earth's shadow,  

DLR